DATE_UTC,TIME_UTC,LA,LO,ST,SA,FL,FI,CAL_T,CAL_S,CAL_C
01/04/2005,16:36:19,32.684414,-117.230518,NaN,NaN,NaN,NaN,NaN,NaN,NaN
01/04/2005,16:44:37,32.667203,-117.22861,13.267,2.590,0.293,0.73,13.267,2.590,0.293
01/04/2005,16:54:37,32.642068,-117.232588,13.290,2.590,0.293,0.728,13.290,2.590,0.293
01/04/2005,17:04:38,32.623537,-117.25075,13.342,2.590,0.293,0.747,13.342,2.590,0.293
01/04/2005,17:14:54,32.636023,-117.274866,13.417,2.591,0.293,0.76,13.417,2.591,0.293
01/04/2005,17:25:09,32.663042,-117.290135,13.507,2.591,0.294,0.812,13.507,2.591,0.294
01/04/2005,17:35:25,32.69108,-117.303815,13.612,2.591,0.675,1.635,13.612,2.591,0.675
01/04/2005,17:45:41,32.718453,-117.316869,14.822,27.680,0.804,1.964,14.822,27.680,0.804
01/04/2005,17:55:41,32.744752,-117.327376,14.982,32.791,0.545,1.678,14.982,32.791,0.545
01/04/2005,18:05:42,32.77237,-117.326219,14.903,32.826,0.759,1.732,14.903,32.826,0.759
01/04/2005,18:15:58,32.801449,-117.323519,14.950,32.843,0.805,1.846,14.950,32.843,0.805
01/04/2005,18:26:14,32.831421,-117.320607,14.788,32.946,0.988,2.106,14.788,32.946,0.988
01/04/2005,18:36:15,32.860853,-117.317641,14.713,32.848,1.054,2.265,14.713,32.848,1.054
01/04/2005,18:46:16,32.889681,-117.314505,15.117,32.772,1.184,2.597,15.117,32.772,1.184
01/04/2005,18:56:16,32.918325,-117.310796,15.198,32.999,0.906,2.295,15.198,32.999,0.906
01/04/2005,19:06:32,32.946854,-117.307069,15.166,33.052,0.593,2.159,15.166,33.052,0.593
01/04/2005,19:16:47,32.957292,-117.306122,15.158,33.061,0.525,2.106,15.158,33.061,0.525
01/04/2005,19:26:48,32.957928,-117.305994,15.154,33.021,0.479,1.992,15.154,33.021,0.479
01/04/2005,19:37:04,32.959002,-117.305086,15.181,32.983,0.466,2,15.181,32.983,0.466
01/04/2005,19:47:34,32.960777,-117.304927,15.199,32.965,0.418,1.835,15.199,32.965,0.418
01/04/2005,19:57:50,32.961368,-117.305543,15.216,32.926,0.437,1.703,15.216,32.926,0.437
01/04/2005,20:07:51,32.959944,-117.305776,15.214,32.919,0.433,1.859,15.214,32.919,0.433
01/04/2005,20:17:52,32.959413,-117.307126,15.250,32.907,0.418,1.7,15.250,32.907,0.418
01/04/2005,20:27:52,32.960719,-117.30948,15.329,32.910,0.383,1.677,15.329,32.910,0.383
01/04/2005,20:38:08,32.962435,-117.312097,15.369,32.955,0.368,1.614,15.369,32.955,0.368
01/04/2005,20:48:39,32.963806,-117.315926,15.375,32.998,0.350,1.52,15.375,32.998,0.350
01/04/2005,20:58:55,32.963926,-117.317131,15.399,33.008,0.384,1.616,15.399,33.008,0.384
01/04/2005,21:09:10,32.958768,-117.304058,15.421,33.025,0.381,1.569,15.421,33.025,0.381
01/04/2005,21:19:27,32.950873,-117.281582,15.340,33.046,0.935,2.303,15.340,33.046,0.935
01/04/2005,21:29:27,32.949981,-117.277033,15.167,32.787,1.136,2.822,15.167,32.787,1.136
01/04/2005,21:39:29,32.951061,-117.278321,15.104,32.642,0.993,2.745,15.104,32.642,0.993
01/04/2005,21:49:30,32.951261,-117.279387,15.095,32.632,1.053,2.416,15.095,32.632,1.053
01/04/2005,21:59:31,32.951332,-117.28168,15.100,32.649,1.059,2.384,15.100,32.649,1.059
01/04/2005,22:09:32,32.950348,-117.283628,15.102,32.753,1.066,2.37,15.102,32.753,1.066
01/04/2005,22:19:33,32.944844,-117.296501,15.240,32.804,0.770,1.807,15.240,32.804,0.770
01/04/2005,22:29:34,32.933969,-117.324813,15.433,32.971,0.564,1.382,15.433,32.971,0.564
01/04/2005,22:39:34,32.921225,-117.353605,15.522,33.061,0.477,1.339,15.522,33.061,0.477
01/04/2005,22:49:36,32.90514,-117.377557,15.546,33.113,0.454,1.312,15.546,33.113,0.454
01/04/2005,22:59:36,32.903798,-117.389008,15.585,33.118,0.356,1.07,15.585,33.118,0.356
01/04/2005,23:09:37,32.905185,-117.390873,15.603,33.130,0.417,1.197,15.603,33.130,0.417
01/04/2005,23:19:52,32.906391,-117.392116,15.604,33.136,0.445,1.07,15.604,33.136,0.445
01/04/2005,23:30:08,32.907689,-117.392736,15.605,33.145,0.438,1.121,15.605,33.145,0.438
01/04/2005,23:40:08,32.908555,-117.392746,15.592,33.155,0.466,1.156,15.592,33.155,0.466
01/04/2005,23:50:09,32.909016,-117.392345,15.599,33.152,0.460,1.266,15.599,33.152,0.460
01/05/2005,00:00:10,32.909665,-117.392725,15.614,33.155,0.465,1.376,15.614,33.155,0.465
01/05/2005,00:10:26,32.91005,-117.392745,15.627,33.160,0.499,1.406,15.627,33.160,0.499
01/05/2005,00:20:41,32.910285,-117.392983,15.639,33.167,0.520,1.356,15.639,33.167,0.520
01/05/2005,00:30:42,32.910547,-117.393746,15.652,33.173,0.522,1.254,15.652,33.173,0.522
01/05/2005,00:40:44,32.910439,-117.393857,15.650,33.181,0.530,1.167,15.650,33.181,0.530
01/05/2005,00:50:45,32.91035,-117.394287,15.638,33.187,0.536,1.12,15.638,33.187,0.536
01/05/2005,01:00:45,32.910869,-117.39728,15.621,33.185,0.527,1.088,15.621,33.185,0.527
01/05/2005,01:10:46,32.911022,-117.400829,15.629,33.182,0.478,1.009,15.629,33.182,0.478
01/05/2005,01:20:46,32.907297,-117.406364,15.612,33.189,0.466,0.989,15.612,33.189,0.466
01/05/2005,01:31:02,32.903721,-117.409086,15.606,33.183,0.461,0.981,15.606,33.183,0.461
01/05/2005,01:41:33,32.900224,-117.411659,15.604,33.174,0.462,0.982,15.604,33.174,0.462
01/05/2005,01:51:48,32.892511,-117.424426,15.592,33.174,0.462,0.982,15.592,33.174,0.462
01/05/2005,02:02:04,32.877916,-117.451851,15.486,33.198,0.692,1.326,15.486,33.198,0.692
01/05/2005,02:12:19,32.862589,-117.480943,15.603,33.117,0.924,1.668,15.603,33.117,0.924
01/05/2005,02:22:20,32.849898,-117.509767,15.740,33.104,0.880,1.604,15.740,33.104,0.880
01/05/2005,02:32:21,32.846291,-117.525722,15.949,33.145,0.578,1.158,15.949,33.145,0.578
01/05/2005,02:42:22,32.845511,-117.526668,16.037,33.210,0.556,1.126,16.037,33.210,0.556
01/05/2005,02:52:38,32.845267,-117.528587,16.049,33.238,0.531,1.089,16.049,33.238,0.531
01/05/2005,03:02:53,32.845569,-117.529392,16.059,33.247,0.515,1.063,16.059,33.247,0.515
01/05/2005,03:12:54,32.845894,-117.528847,16.047,33.257,0.549,1.116,16.047,33.257,0.549
01/05/2005,03:23:09,32.846564,-117.529591,16.058,33.251,0.545,1.11,16.058,33.251,0.545
01/05/2005,03:33:25,32.84698,-117.52883,16.056,33.256,0.553,1.121,16.056,33.256,0.553
01/05/2005,03:43:25,32.847604,-117.52942,16.054,33.256,0.570,1.146,16.054,33.256,0.570
01/05/2005,03:53:26,32.84789,-117.529227,16.039,33.259,0.571,1.148,16.039,33.259,0.571
01/05/2005,04:03:27,32.847003,-117.529595,16.041,33.252,0.561,1.133,16.041,33.252,0.561
01/05/2005,04:13:28,32.843671,-117.529586,16.053,33.253,0.561,1.134,16.053,33.253,0.561
01/05/2005,04:23:29,32.838093,-117.530869,16.063,33.252,0.510,1.056,16.063,33.252,0.510
01/05/2005,04:33:45,32.831967,-117.53268,16.062,33.261,0.509,1.055,16.062,33.261,0.509
01/05/2005,04:44:01,32.827784,-117.533364,16.012,33.281,0.502,1.044,16.012,33.281,0.502
01/05/2005,04:54:01,32.823331,-117.538513,16.010,33.283,0.487,1.022,16.010,33.283,0.487
01/05/2005,05:04:17,32.812642,-117.560381,15.937,33.307,0.576,1.155,15.937,33.307,0.576
01/05/2005,05:14:48,32.798769,-117.591765,15.874,33.276,0.767,1.438,15.874,33.276,0.767
01/05/2005,05:25:03,32.785582,-117.622882,15.808,33.285,0.959,1.718,15.808,33.285,0.959
01/05/2005,05:35:04,32.773033,-117.653459,15.717,33.286,1.177,2.035,15.717,33.286,1.177
01/05/2005,05:45:05,32.760949,-117.684026,15.672,33.274,1.374,2.318,15.672,33.274,1.374
01/05/2005,05:55:21,32.748839,-117.715721,15.589,33.270,1.707,2.799,15.589,33.270,1.707
01/05/2005,06:05:37,32.736584,-117.747529,15.479,33.245,1.754,2.866,15.479,33.245,1.754
01/05/2005,06:15:38,32.724155,-117.778051,15.842,33.116,0.841,1.545,15.842,33.116,0.841
01/05/2005,06:25:38,32.711518,-117.808045,16.200,33.282,0.455,0.97,16.200,33.282,0.455
01/05/2005,06:35:39,32.698705,-117.837594,16.065,33.346,0.480,1.011,16.065,33.346,0.480
01/05/2005,06:45:40,32.685606,-117.864126,15.565,33.304,0.763,1.433,15.565,33.304,0.763
01/05/2005,06:55:40,32.683104,-117.873655,15.551,33.209,0.856,1.569,15.551,33.209,0.856
01/05/2005,07:05:41,32.684666,-117.876127,15.549,33.211,0.877,1.599,15.549,33.211,0.877
01/05/2005,07:15:56,32.685936,-117.878026,15.556,33.214,0.883,1.609,15.556,33.214,0.883
01/05/2005,07:26:12,32.686719,-117.880167,15.555,33.219,0.887,1.615,15.555,33.219,0.887
01/05/2005,07:36:12,32.687624,-117.882118,15.549,33.215,0.891,1.621,15.549,33.215,0.891
01/05/2005,07:46:13,32.687742,-117.883495,15.553,33.220,0.900,1.633,15.553,33.220,0.900
01/05/2005,07:56:14,32.688094,-117.885254,15.557,33.216,0.919,1.662,15.557,33.216,0.919
01/05/2005,08:06:15,32.688613,-117.886279,15.550,33.222,0.907,1.644,15.550,33.222,0.907
01/05/2005,08:16:15,32.688493,-117.88811,15.557,33.220,0.929,1.676,15.557,33.220,0.929
01/05/2005,08:26:17,32.68846,-117.890617,15.564,33.222,0.940,1.692,15.564,33.222,0.940
01/05/2005,08:36:18,32.688631,-117.895177,15.594,33.217,0.976,1.743,15.594,33.217,0.976
01/05/2005,08:46:18,32.688441,-117.900343,15.612,33.227,0.999,1.777,15.612,33.227,0.999
01/05/2005,08:56:19,32.686441,-117.905789,15.610,33.235,1.065,1.872,15.610,33.235,1.065
01/05/2005,09:06:19,32.684766,-117.90942,15.609,33.244,1.059,1.864,15.609,33.244,1.059
01/05/2005,09:16:20,32.683888,-117.911183,15.612,33.247,1.058,1.863,15.612,33.247,1.058
01/05/2005,09:26:36,32.682976,-117.911719,15.604,33.250,1.116,1.946,15.604,33.250,1.116
01/05/2005,09:36:52,32.672906,-117.928613,15.598,33.248,1.010,1.794,15.598,33.248,1.010
01/05/2005,09:46:53,32.658437,-117.953303,15.690,33.232,0.847,1.556,15.690,33.232,0.847
01/05/2005,09:56:53,32.644009,-117.977827,15.813,33.259,0.718,1.367,15.813,33.259,0.718
01/05/2005,10:06:54,32.629599,-118.002605,15.708,33.295,0.923,1.666,15.708,33.295,0.923
01/05/2005,10:16:55,32.615121,-118.0275,15.581,33.288,0.681,1.31,15.581,33.288,0.681
01/05/2005,10:26:56,32.600669,-118.052363,15.414,33.241,0.655,1.274,15.414,33.241,0.655
01/05/2005,10:36:56,32.586368,-118.077118,15.390,33.210,0.666,1.29,15.390,33.210,0.666
01/05/2005,10:46:57,32.572391,-118.10193,15.385,33.212,0.656,1.274,15.385,33.212,0.656
01/05/2005,10:57:13,32.558,-118.127826,15.375,33.210,0.686,1.32,15.375,33.210,0.686
01/05/2005,11:07:29,32.542943,-118.15489,15.350,33.206,0.684,1.316,15.350,33.206,0.684
01/05/2005,11:17:29,32.526437,-118.180703,15.392,33.204,0.749,1.413,15.392,33.204,0.749
01/05/2005,11:27:30,32.511517,-118.204173,15.395,33.227,0.740,1.399,15.395,33.227,0.740
01/05/2005,11:37:31,32.510269,-118.210622,15.381,33.211,0.767,1.439,15.381,33.211,0.767
01/05/2005,11:47:46,32.510418,-118.210031,15.368,33.207,0.760,1.429,15.368,33.207,0.760
01/05/2005,11:58:02,32.511436,-118.210338,15.377,33.218,0.742,1.402,15.377,33.218,0.742
01/05/2005,12:08:18,32.512129,-118.210082,15.382,33.223,0.746,1.408,15.382,33.223,0.746
01/05/2005,12:18:33,32.513171,-118.210343,15.380,33.225,0.729,1.384,15.380,33.225,0.729
01/05/2005,12:28:34,32.514016,-118.209904,15.377,33.225,0.715,1.362,15.377,33.225,0.715
01/05/2005,12:38:50,32.514684,-118.209319,15.386,33.224,0.717,1.366,15.386,33.224,0.717
01/05/2005,12:49:05,32.515627,-118.209799,15.385,33.226,0.697,1.336,15.385,33.226,0.697
01/05/2005,12:59:20,32.5167,-118.212593,15.384,33.226,0.707,1.351,15.384,33.226,0.707
01/05/2005,13:09:36,32.516575,-118.216954,15.386,33.226,0.705,1.348,15.386,33.226,0.705
01/05/2005,13:19:36,32.515971,-118.222329,15.383,33.226,0.714,1.362,15.383,33.226,0.714
01/05/2005,13:29:37,32.513801,-118.228721,15.379,33.226,0.727,1.38,15.379,33.226,0.727
01/05/2005,13:39:38,32.512078,-118.233096,15.376,33.225,0.736,1.394,15.376,33.225,0.736
01/05/2005,13:49:54,32.509007,-118.239009,15.372,33.227,0.744,1.405,15.372,33.227,0.744
01/05/2005,14:00:09,32.495955,-118.260015,15.370,33.221,0.782,1.461,15.370,33.221,0.782
01/05/2005,14:10:10,32.479324,-118.286221,15.381,33.232,0.817,1.512,15.381,33.232,0.817
01/05/2005,14:20:11,32.462799,-118.312591,15.390,33.233,0.782,1.461,15.390,33.233,0.782
01/05/2005,14:30:11,32.446654,-118.339211,15.457,33.223,0.644,1.257,15.457,33.223,0.644
01/05/2005,14:40:12,32.431566,-118.366729,15.409,33.247,0.699,1.339,15.409,33.247,0.699
01/05/2005,14:50:27,32.419534,-118.392496,15.323,33.235,0.960,1.725,15.323,33.235,0.960
01/05/2005,15:00:42,32.415338,-118.401602,15.321,33.215,1.006,1.802,15.321,33.215,1.006
01/05/2005,15:10:58,32.406113,-118.420875,15.319,33.229,0.963,1.757,15.319,33.229,0.963
01/05/2005,15:21:13,32.392454,-118.449987,15.214,33.240,1.040,1.914,15.214,33.240,1.040
01/05/2005,15:31:14,32.378934,-118.478577,15.171,33.222,1.034,2.053,15.171,33.222,1.034
01/05/2005,15:41:15,32.365163,-118.507084,15.158,33.222,1.003,2.346,15.158,33.222,1.003
01/05/2005,15:51:15,32.355921,-118.525484,15.173,33.208,0.814,1.982,15.173,33.208,0.814
01/05/2005,16:01:16,32.351124,-118.539462,15.193,33.202,0.766,1.971,15.193,33.202,0.766
01/05/2005,16:11:16,32.350179,-118.543301,15.211,33.216,0.718,1.862,15.211,33.216,0.718
01/05/2005,16:21:32,32.349274,-118.547486,15.219,33.218,0.696,1.681,15.219,33.218,0.696
01/05/2005,16:31:48,32.348382,-118.553398,15.228,33.217,0.660,1.651,15.228,33.217,0.660
01/05/2005,16:42:03,32.34756,-118.5597,15.234,33.219,0.646,1.532,15.234,33.219,0.646
01/05/2005,16:52:19,32.349051,-118.563329,15.251,33.214,0.559,1.815,15.251,33.214,0.559
01/05/2005,17:02:20,32.350971,-118.56463,15.275,33.216,0.574,1.974,15.275,33.216,0.574
01/05/2005,17:12:21,32.352871,-118.566005,15.296,33.217,0.551,1.922,15.296,33.217,0.551
01/05/2005,17:22:37,32.354194,-118.56709,15.312,33.220,0.539,1.896,15.312,33.220,0.539
01/05/2005,17:33:07,32.35537,-118.567876,15.326,33.221,0.489,1.809,15.326,33.221,0.489
01/05/2005,17:43:38,32.35603,-118.568398,15.338,33.221,0.466,1.742,15.338,33.221,0.466
01/05/2005,17:53:53,32.357122,-118.569111,15.356,33.220,0.402,1.601,15.356,33.220,0.402
01/05/2005,18:03:54,32.357875,-118.569754,15.404,33.219,0.356,1.436,15.404,33.219,0.356
01/05/2005,18:13:55,32.357098,-118.57149,15.409,33.234,0.339,1.386,15.409,33.234,0.339
01/05/2005,18:24:10,32.349954,-118.583099,15.382,33.235,0.341,1.485,15.382,33.235,0.341
01/05/2005,18:34:26,32.333679,-118.610786,15.449,33.210,0.311,1.372,15.449,33.210,0.311
01/05/2005,18:44:27,32.317262,-118.63862,15.498,33.222,0.328,1.537,15.498,33.222,0.328
01/05/2005,18:54:28,32.301082,-118.666469,15.535,33.220,0.340,1.528,15.535,33.220,0.340
01/05/2005,19:04:29,32.2852,-118.694348,15.490,33.245,0.338,1.498,15.490,33.245,0.338
01/05/2005,19:14:30,32.26927,-118.722433,15.376,33.250,0.379,1.628,15.376,33.250,0.379
01/05/2005,19:24:46,32.253025,-118.751,15.385,33.194,0.357,1.573,15.385,33.194,0.357
01/05/2005,19:35:01,32.236731,-118.779365,15.517,33.210,0.303,1.41,15.517,33.210,0.303
01/05/2005,19:45:16,32.220185,-118.807496,15.546,33.230,0.298,1.382,15.546,33.230,0.298
01/05/2005,19:55:32,32.203734,-118.835962,15.525,33.246,0.304,1.376,15.525,33.246,0.304
01/05/2005,20:05:33,32.191567,-118.858009,15.433,33.241,0.341,1.538,15.433,33.241,0.341
01/05/2005,20:15:49,32.180078,-118.881085,15.335,33.213,0.400,1.691,15.335,33.213,0.400
01/05/2005,20:26:05,32.177539,-118.888229,15.408,33.194,0.391,1.645,15.408,33.194,0.391
01/05/2005,20:36:06,32.178161,-118.891018,15.458,33.173,0.383,1.56,15.458,33.173,0.383
01/05/2005,20:46:06,32.179078,-118.892823,15.510,33.204,0.410,1.536,15.510,33.204,0.410
01/05/2005,20:56:22,32.180166,-118.894322,15.517,33.212,0.417,1.519,15.517,33.212,0.417
01/05/2005,21:06:52,32.181176,-118.895839,15.636,33.168,0.434,1.635,15.636,33.168,0.434
01/05/2005,21:17:08,32.180082,-118.897113,15.479,33.246,0.467,1.899,15.479,33.246,0.467
01/05/2005,21:27:09,32.178018,-118.898996,15.472,33.201,0.448,1.88,15.472,33.201,0.448
01/05/2005,21:37:25,32.175293,-118.900989,15.511,33.194,0.457,1.735,15.511,33.194,0.457
01/05/2005,21:47:55,32.172119,-118.903967,15.480,33.212,0.492,1.7,15.480,33.212,0.492
01/05/2005,21:58:11,32.168875,-118.908238,15.503,33.200,0.606,1.707,15.503,33.200,0.606
01/05/2005,22:08:11,32.165578,-118.913784,15.538,33.194,0.631,1.842,15.538,33.194,0.631
01/05/2005,22:18:27,32.162873,-118.918637,15.674,33.193,0.667,2.031,15.674,33.193,0.667
01/05/2005,22:28:43,32.160164,-118.923058,15.738,33.183,0.605,1.895,15.738,33.183,0.605
01/05/2005,22:38:44,32.153889,-118.93566,15.635,33.289,0.557,1.811,15.635,33.289,0.557
01/05/2005,22:48:45,32.140752,-118.963997,15.693,33.212,0.499,1.576,15.693,33.212,0.499
01/05/2005,22:59:01,32.126928,-118.994383,15.641,33.256,0.517,1.579,15.641,33.256,0.517
01/05/2005,23:09:17,32.113158,-119.02521,15.444,33.262,0.751,1.835,15.444,33.262,0.751
01/05/2005,23:19:17,32.099307,-119.055351,15.437,33.189,0.819,1.972,15.437,33.189,0.819
01/05/2005,23:29:18,32.085209,-119.085416,15.486,33.227,0.701,1.721,15.486,33.227,0.701
01/05/2005,23:39:19,32.071494,-119.115317,15.476,33.218,0.993,2.133,15.476,33.218,0.993
01/05/2005,23:49:19,32.057948,-119.145067,15.444,33.198,0.930,2.085,15.444,33.198,0.930
01/05/2005,23:59:20,32.043498,-119.173683,15.546,33.192,0.731,1.728,15.546,33.192,0.731
01/06/2005,00:09:35,32.029367,-119.201163,15.575,33.235,0.615,1.723,15.575,33.235,0.615
01/06/2005,00:19:51,32.022687,-119.214009,15.590,33.212,0.638,1.373,15.590,33.212,0.638
01/06/2005,00:29:52,32.015707,-119.229187,15.599,33.219,0.637,1.316,15.599,33.219,0.637
01/06/2005,00:40:07,32.013922,-119.231271,15.593,33.229,0.638,1.29,15.593,33.229,0.638
01/06/2005,00:50:23,32.013326,-119.231554,15.564,33.236,0.651,1.296,15.564,33.236,0.651
01/06/2005,01:00:23,32.013181,-119.232933,15.532,33.232,0.659,1.306,15.532,33.232,0.659
01/06/2005,01:10:39,32.013155,-119.234299,15.535,33.224,0.640,1.258,15.535,33.224,0.640
01/06/2005,01:20:55,32.01304,-119.235326,15.502,33.242,0.637,1.248,15.502,33.242,0.637
01/06/2005,01:30:55,32.012962,-119.23638,15.462,33.252,0.642,1.254,15.462,33.252,0.642
01/06/2005,01:41:12,32.012897,-119.237072,15.335,33.239,0.658,1.278,15.335,33.239,0.658
01/06/2005,01:51:27,32.012249,-119.241073,15.472,33.179,0.620,1.22,15.472,33.179,0.620
01/06/2005,02:01:28,32.011343,-119.246909,15.524,33.225,0.611,1.208,15.524,33.225,0.611
01/06/2005,02:11:29,32.009461,-119.253881,15.484,33.235,0.612,1.209,15.484,33.235,0.612
01/06/2005,02:21:30,32.007888,-119.259463,15.527,33.213,0.603,1.195,15.527,33.213,0.603
01/06/2005,02:31:31,32.005839,-119.265197,15.513,33.232,0.600,1.191,15.513,33.232,0.600
01/06/2005,02:41:31,31.998708,-119.280034,15.434,33.248,0.603,1.196,15.434,33.248,0.603
01/06/2005,02:51:47,31.984266,-119.309757,15.370,33.229,0.616,1.215,15.370,33.229,0.616
01/06/2005,03:02:03,31.968984,-119.340858,15.356,33.214,0.648,1.264,15.356,33.214,0.648
01/06/2005,03:12:18,31.953458,-119.371762,15.268,33.233,0.651,1.267,15.268,33.233,0.651
01/06/2005,03:22:34,31.938122,-119.402476,15.286,33.207,0.617,1.216,15.286,33.207,0.617
01/06/2005,03:32:35,31.923483,-119.432157,15.268,33.221,0.624,1.227,15.268,33.221,0.624
01/06/2005,03:42:35,31.909156,-119.461712,15.149,33.246,0.730,1.383,15.149,33.246,0.730
01/06/2005,03:52:35,31.894643,-119.491013,15.073,33.208,0.849,1.559,15.073,33.208,0.849
01/06/2005,04:02:51,31.878939,-119.520016,15.095,33.216,1.008,1.79,15.095,33.216,1.008
01/06/2005,04:13:07,31.861094,-119.547377,15.021,33.210,0.961,1.721,15.021,33.210,0.961
01/06/2005,04:23:08,31.849985,-119.56642,15.006,33.153,0.551,1.117,15.006,33.153,0.551
01/06/2005,04:33:08,31.849314,-119.568177,15.024,33.151,0.544,1.108,15.024,33.151,0.544
01/06/2005,04:43:10,31.848945,-119.569018,15.032,33.138,0.541,1.103,15.032,33.138,0.541
01/06/2005,04:53:11,31.848636,-119.569064,14.910,33.161,0.650,1.265,14.910,33.161,0.650
01/06/2005,05:03:26,31.848447,-119.569286,14.921,33.147,0.648,1.262,14.921,33.147,0.648
01/06/2005,05:13:42,31.848128,-119.568919,14.871,33.149,0.698,1.338,14.871,33.149,0.698
01/06/2005,05:23:42,31.847623,-119.568625,14.872,33.141,0.675,1.303,14.872,33.141,0.675
01/06/2005,05:33:43,31.847006,-119.56853,14.886,33.144,0.649,1.264,14.886,33.144,0.649
01/06/2005,05:43:44,31.846003,-119.569367,14.975,33.114,0.528,1.083,14.975,33.114,0.528
01/06/2005,05:53:45,31.844524,-119.571371,14.980,33.148,0.499,1.04,14.980,33.148,0.499
01/06/2005,06:03:46,31.841474,-119.575953,14.903,33.153,0.546,1.111,14.903,33.153,0.546
01/06/2005,06:13:47,31.838789,-119.579597,14.886,33.137,0.604,1.198,14.886,33.137,0.604
01/06/2005,06:23:48,31.836134,-119.58335,14.893,33.128,0.596,1.186,14.893,33.128,0.596
01/06/2005,06:33:49,31.830647,-119.592493,14.913,33.129,0.585,1.169,14.913,33.129,0.585
01/06/2005,06:43:49,31.816909,-119.618809,14.943,33.123,0.637,1.246,14.943,33.123,0.637
01/06/2005,06:53:50,31.802111,-119.647772,14.976,33.138,0.669,1.294,14.976,33.138,0.669
01/06/2005,07:03:50,31.787632,-119.677113,14.994,33.154,0.756,1.423,14.994,33.154,0.756
01/06/2005,07:13:51,31.773393,-119.706417,15.019,33.177,0.799,1.485,15.019,33.177,0.799
01/06/2005,07:23:51,31.759051,-119.735453,14.969,33.179,0.634,1.242,14.969,33.179,0.634
01/06/2005,07:33:52,31.744513,-119.764289,15.009,33.145,0.505,1.048,15.009,33.145,0.505
01/06/2005,07:44:08,31.72974,-119.793491,15.053,33.155,0.481,1.012,15.053,33.155,0.481
01/06/2005,07:54:39,31.71465,-119.823154,15.074,33.177,0.585,1.168,15.074,33.177,0.585
01/06/2005,08:04:55,31.699817,-119.852608,15.025,33.181,0.588,1.174,15.025,33.181,0.588
01/06/2005,08:14:55,31.685365,-119.881572,15.019,33.160,0.462,0.983,15.019,33.160,0.462
01/06/2005,08:25:11,31.67053,-119.911403,15.053,33.162,0.418,0.914,15.053,33.162,0.418
01/06/2005,08:35:26,31.655666,-119.941457,15.040,33.154,0.450,0.964,15.040,33.154,0.450
01/06/2005,08:45:27,31.640925,-119.970739,15.033,33.163,0.647,1.259,15.033,33.163,0.647
01/06/2005,08:55:42,31.625579,-120.000963,15.077,33.186,0.921,1.665,15.077,33.186,0.921
01/06/2005,09:05:58,31.610355,-120.031445,15.066,33.206,0.922,1.666,15.066,33.206,0.922
01/06/2005,09:15:58,31.595656,-120.061225,15.028,33.211,0.950,1.707,15.028,33.211,0.950
01/06/2005,09:25:59,31.581321,-120.091088,14.998,33.204,0.903,1.637,14.998,33.204,0.903
01/06/2005,09:36:15,31.566821,-120.120681,14.964,33.207,0.978,1.747,14.964,33.207,0.978
01/06/2005,09:46:31,31.55254,-120.149892,14.954,33.202,0.991,1.766,14.954,33.202,0.991
01/06/2005,09:56:31,31.538376,-120.17832,14.947,33.198,0.991,1.765,14.947,33.198,0.991
01/06/2005,10:06:32,31.524326,-120.207169,14.976,33.181,0.838,1.542,14.976,33.181,0.838
01/06/2005,10:16:33,31.512784,-120.234689,14.945,33.181,0.551,1.117,14.945,33.181,0.551
01/06/2005,10:26:34,31.510924,-120.241422,14.956,33.150,0.631,1.238,14.956,33.150,0.631
01/06/2005,10:36:50,31.510477,-120.24238,14.957,33.152,0.620,1.221,14.957,33.152,0.620
01/06/2005,10:47:20,31.510945,-120.243506,14.954,33.160,0.626,1.23,14.954,33.160,0.626
01/06/2005,10:57:36,31.511658,-120.244502,14.954,33.162,0.633,1.241,14.954,33.162,0.633
01/06/2005,11:07:36,31.51246,-120.245675,14.952,33.162,0.637,1.246,14.952,33.162,0.637
01/06/2005,11:17:37,31.513084,-120.246471,14.949,33.162,0.661,1.281,14.949,33.162,0.661
01/06/2005,11:27:38,31.513399,-120.247424,14.945,33.162,0.678,1.308,14.945,33.162,0.678
01/06/2005,11:37:53,31.513365,-120.248528,14.942,33.162,0.671,1.297,14.942,33.162,0.671
01/06/2005,11:48:09,31.514683,-120.25147,14.944,33.159,0.643,1.257,14.944,33.159,0.643
01/06/2005,11:58:10,31.51632,-120.255086,14.954,33.159,0.619,1.22,14.954,33.159,0.619
01/06/2005,12:08:10,31.518506,-120.260709,14.973,33.157,0.571,1.148,14.973,33.157,0.571
01/06/2005,12:18:11,31.519366,-120.264396,14.982,33.160,0.536,1.096,14.982,33.160,0.536
01/06/2005,12:28:12,31.518872,-120.270658,14.976,33.167,0.554,1.123,14.976,33.167,0.554
01/06/2005,12:38:13,31.509638,-120.288755,15.004,33.161,0.577,1.156,15.004,33.161,0.577
01/06/2005,12:48:13,31.494349,-120.317085,14.945,33.178,0.524,1.077,14.945,33.178,0.524
01/06/2005,12:58:14,31.478487,-120.34508,14.885,33.131,0.401,0.887,14.885,33.131,0.401
01/06/2005,13:08:15,31.462687,-120.372779,14.840,33.097,0.463,0.984,14.840,33.097,0.463
01/06/2005,13:18:31,31.446415,-120.401356,14.846,33.043,0.459,0.978,14.846,33.043,0.459
01/06/2005,13:28:46,31.430385,-120.430109,14.802,33.055,0.437,0.943,14.802,33.055,0.437
01/06/2005,13:38:47,31.414598,-120.458,14.972,32.979,0.421,0.917,14.972,32.979,0.421
01/06/2005,13:48:47,31.398669,-120.485748,15.288,32.990,0.329,0.775,15.288,32.990,0.329
01/06/2005,13:58:48,31.383119,-120.51351,15.266,33.077,0.306,0.738,15.266,33.077,0.306